timestamp,wind_dir_avg,wind_spd_max_dir,wind_spd_avg,wind_spd_gust,battery_voltage,lat,long
2018-06-14 00:00:00+00:00,247.0,264.0,4.86,6.18,,47.59359,-54.27349
2018-06-14 00:10:00+00:00,253.0,256.0,4.89,5.4,,47.59359,-54.27349
2018-06-14 00:20:00+00:00,225.0,226.0,4.29,5.22,,47.59359,-54.27349
2018-06-14 00:30:00+00:00,217.0,220.0,5.26,6.14,,47.59359,-54.27349
2018-06-14 00:40:00+00:00,221.0,221.0,5.67,6.45,,47.59359,-54.27349
2018-06-14 00:50:00+00:00,234.0,233.0,5.92,6.9,,47.59359,-54.27349
2018-06-14 01:00:00+00:00,243.0,234.0,4.75,5.33,,47.59359,-54.27349
2018-06-14 01:10:00+00:00,234.0,238.0,4.89,5.4,,47.59359,-54.27349
2018-06-14 01:20:00+00:00,232.0,234.0,4.75,5.34,,47.59359,-54.27349
2018-06-14 01:30:00+00:00,234.0,231.0,4.98,5.61,,47.59359,-54.27349
2018-06-14 01:40:00+00:00,230.0,232.0,4.62,5.19,,47.59359,-54.27349
2018-06-14 01:50:00+00:00,239.0,238.0,4.84,5.41,,47.59359,-54.27349
2018-06-14 02:00:00+00:00,240.0,242.0,5.36,5.98,,47.59359,-54.27349
2018-06-14 02:10:00+00:00,246.0,244.0,5.42,6.03,,47.59359,-54.27349
2018-06-14 02:20:00+00:00,249.0,252.0,5.54,5.84,,47.59359,-54.27349
2018-06-14 02:30:00+00:00,248.0,249.0,5.24,6.03,,47.59359,-54.27349
2018-06-14 02:40:00+00:00,254.0,258.0,5.86,6.52,,47.59359,-54.27349
2018-06-14 02:50:00+00:00,250.0,250.0,5.48,6.03,,47.59359,-54.27349
2018-06-14 03:00:00+00:00,251.0,250.0,5.69,6.61,,47.59359,-54.27349
2018-06-14 03:10:00+00:00,254.0,256.0,6.31,6.82,,47.59359,-54.27349
2018-06-14 03:20:00+00:00,258.0,260.0,5.28,5.75,,47.59359,-54.27349
2018-06-14 03:30:00+00:00,245.0,247.0,5.52,6.4,,47.59359,-54.27349
2018-06-14 03:40:00+00:00,243.0,245.0,4.73,5.68,,47.59359,-54.27349
2018-06-14 03:50:00+00:00,255.0,265.0,4.3,4.89,,47.59359,-54.27349
2018-06-14 04:00:00+00:00,287.0,296.0,6.08,6.88,,47.59359,-54.27349
2018-06-14 04:10:00+00:00,305.0,303.0,6.23,8.3,,47.59359,-54.27349
2018-06-14 04:20:00+00:00,323.0,325.0,5.96,7.18,,47.59359,-54.27349
2018-06-14 04:30:00+00:00,342.0,334.0,8.71,10.42,,47.59359,-54.27349
2018-06-14 04:40:00+00:00,357.0,357.0,10.34,11.7,,47.59359,-54.27349
2018-06-14 04:50:00+00:00,354.0,356.0,8.15,8.99,,47.59359,-54.27349
2018-06-14 05:00:00+00:00,1.0,2.0,8.18,8.79,,47.59359,-54.27349
2018-06-14 05:10:00+00:00,7.0,8.0,9.93,11.14,,47.59359,-54.27349
2018-06-14 05:20:00+00:00,5.0,4.0,11.42,13.2,,47.59359,-54.27349
2018-06-14 05:30:00+00:00,3.0,3.0,10.4,11.71,,47.59359,-54.27349
2018-06-14 05:40:00+00:00,358.0,0.0,10.13,11.25,,47.59359,-54.27349
2018-06-14 05:50:00+00:00,0.0,0.0,10.65,11.54,,47.59359,-54.27349
2018-06-14 06:00:00+00:00,1.0,0.0,11.17,11.86,,47.59359,-54.27349
2018-06-14 06:10:00+00:00,359.0,359.0,8.85,9.71,,47.59359,-54.27349
2018-06-14 06:20:00+00:00,357.0,357.0,7.48,9.29,,47.59359,-54.27349
2018-06-14 06:30:00+00:00,5.0,6.0,7.37,8.42,,47.59359,-54.27349
2018-06-14 06:40:00+00:00,7.0,3.0,6.93,8.29,,47.59359,-54.27349
2018-06-14 06:50:00+00:00,6.0,5.0,5.91,6.72,,47.59359,-54.27349
2018-06-14 07:00:00+00:00,352.0,0.0,4.77,5.55,,47.59359,-54.27349
2018-06-14 07:10:00+00:00,359.0,358.0,4.99,5.4,,47.59359,-54.27349
2018-06-14 07:20:00+00:00,346.0,343.0,5.21,5.59,,47.59359,-54.27349
2018-06-14 07:30:00+00:00,354.0,356.0,5.37,6.16,,47.59359,-54.27349
2018-06-14 07:40:00+00:00,358.0,359.0,7.33,8.45,,47.59359,-54.27349
2018-06-14 07:50:00+00:00,2.0,0.0,7.71,8.49,,47.59359,-54.27349
2018-06-14 08:00:00+00:00,5.0,3.0,7.69,8.59,,47.59359,-54.27349
2018-06-14 08:10:00+00:00,20.0,33.0,7.93,9.72,,47.59359,-54.27349
2018-06-14 08:20:00+00:00,31.0,33.0,7.46,9.04,,47.59359,-54.27349
2018-06-14 08:30:00+00:00,26.0,21.0,5.67,6.48,,47.59359,-54.27349
2018-06-14 08:40:00+00:00,25.0,30.0,5.01,6.06,,47.59359,-54.27349
2018-06-14 08:50:00+00:00,13.0,12.0,4.31,5.03,,47.59359,-54.27349
2018-06-14 09:00:00+00:00,31.0,33.0,4.85,5.51,,47.59359,-54.27349
2018-06-14 09:10:00+00:00,25.0,28.0,6.5,7.26,,47.59359,-54.27349
2018-06-14 09:20:00+00:00,28.0,30.0,6.13,6.55,,47.59359,-54.27349
2018-06-14 09:30:00+00:00,26.0,27.0,7.44,8.12,,47.59359,-54.27349
2018-06-14 09:40:00+00:00,16.0,17.0,5.08,5.68,,47.59359,-54.27349
2018-06-14 09:50:00+00:00,3.0,3.0,3.3,3.61,,47.59359,-54.27349
2018-06-14 10:00:00+00:00,350.0,350.0,6.7,7.09,,47.59359,-54.27349
2018-06-14 10:10:00+00:00,344.0,344.0,4.52,5.08,,47.59359,-54.27349
2018-06-14 10:20:00+00:00,4.0,3.0,3.81,4.57,,47.59359,-54.27349
2018-06-14 10:30:00+00:00,22.0,15.0,3.94,4.91,,47.59359,-54.27349
2018-06-14 10:40:00+00:00,23.0,24.0,3.75,4.3,,47.59359,-54.27349
2018-06-14 10:50:00+00:00,20.0,16.0,4.99,5.73,,47.59359,-54.27349
2018-06-14 11:00:00+00:00,34.0,35.0,4.68,5.11,,47.59359,-54.27349
2018-06-14 11:10:00+00:00,25.0,35.0,3.73,4.52,,47.59359,-54.27349
2018-06-14 11:20:00+00:00,27.0,30.0,5.23,6.0,,47.59359,-54.27349
2018-06-14 11:30:00+00:00,31.0,34.0,5.13,5.91,,47.59359,-54.27349
2018-06-14 11:40:00+00:00,32.0,30.0,4.5,5.0,,47.59359,-54.27349
2018-06-14 11:50:00+00:00,31.0,36.0,5.31,5.9,,47.59359,-54.27349
2018-06-14 12:00:00+00:00,25.0,28.0,5.73,6.43,,47.59359,-54.27349
2018-06-14 12:10:00+00:00,30.0,28.0,5.57,6.06,,47.59359,-54.27349
2018-06-14 12:20:00+00:00,44.0,45.0,3.86,4.18,,47.59359,-54.27349
2018-06-14 12:30:00+00:00,43.0,46.0,2.7,3.19,,47.59359,-54.27349
2018-06-14 12:40:00+00:00,72.0,76.0,2.5,2.73,,47.59359,-54.27349
2018-06-14 12:50:00+00:00,58.0,56.0,3.64,4.05,,47.59359,-54.27349
2018-06-14 13:00:00+00:00,66.0,69.0,3.24,3.53,,47.59359,-54.27349
2018-06-14 13:10:00+00:00,67.0,61.0,2.08,2.57,,47.59359,-54.27349
2018-06-14 13:20:00+00:00,76.0,79.0,3.39,4.17,,47.59359,-54.27349
2018-06-14 13:30:00+00:00,89.0,76.0,3.64,4.68,,47.59359,-54.27349
2018-06-14 13:40:00+00:00,130.0,145.0,3.48,4.89,,47.59359,-54.27349
2018-06-14 13:50:00+00:00,84.0,83.0,4.52,5.3,,47.59359,-54.27349
2018-06-14 14:00:00+00:00,83.0,79.0,3.89,5.32,,47.59359,-54.27349
2018-06-14 14:10:00+00:00,100.0,93.0,2.67,3.83,,47.59359,-54.27349
2018-06-14 14:20:00+00:00,82.0,91.0,3.3,4.22,,47.59359,-54.27349
2018-06-14 14:30:00+00:00,77.0,79.0,3.02,3.48,,47.59359,-54.27349
2018-06-14 14:40:00+00:00,78.0,81.0,3.72,4.32,,47.59359,-54.27349
2018-06-14 14:50:00+00:00,82.0,82.0,3.21,3.45,,47.59359,-54.27349
2018-06-14 15:00:00+00:00,80.0,82.0,3.05,3.18,,47.59359,-54.27349
2018-06-14 15:10:00+00:00,78.0,74.0,2.55,3.03,,47.59359,-54.27349
2018-06-14 15:20:00+00:00,82.0,81.0,2.82,3.16,,47.59359,-54.27349
2018-06-14 15:30:00+00:00,71.0,72.0,2.61,2.71,,47.59359,-54.27349
2018-06-14 15:40:00+00:00,84.0,77.0,2.21,3.47,,47.59359,-54.27349
2018-06-14 15:50:00+00:00,68.0,70.0,2.35,2.7,,47.59359,-54.27349
2018-06-14 16:00:00+00:00,59.0,72.0,0.94,1.14,,47.59359,-54.27349
2018-06-14 16:10:00+00:00,199.0,185.0,0.23,0.91,,47.59359,-54.27349
2018-06-14 16:20:00+00:00,215.0,220.0,2.2,2.4,,47.59359,-54.27349
2018-06-14 16:30:00+00:00,196.0,196.0,2.48,2.58,,47.59359,-54.27349
2018-06-14 16:40:00+00:00,186.0,181.0,1.31,1.7,,47.59359,-54.27349
2018-06-14 16:50:00+00:00,214.0,217.0,1.08,1.39,,47.59359,-54.27349
2018-06-14 17:00:00+00:00,180.0,180.0,2.26,2.36,,47.59359,-54.27349
2018-06-14 17:10:00+00:00,168.0,173.0,0.39,0.62,,47.59359,-54.27349
2018-06-14 17:20:00+00:00,317.0,308.0,0.9,1.09,,47.59359,-54.27349
2018-06-14 17:30:00+00:00,1.0,357.0,0.96,1.43,,47.59359,-54.27349
2018-06-14 17:40:00+00:00,350.0,349.0,2.21,2.44,,47.59359,-54.27349
2018-06-14 17:50:00+00:00,12.0,11.0,1.82,1.93,,47.59359,-54.27349
2018-06-14 18:00:00+00:00,30.0,31.0,2.46,2.56,,47.59359,-54.27349
2018-06-14 18:10:00+00:00,32.0,23.0,2.25,2.61,,47.59359,-54.27349
2018-06-14 18:20:00+00:00,26.0,25.0,2.03,2.34,,47.59359,-54.27349
2018-06-14 18:30:00+00:00,38.0,36.0,2.3,2.89,,47.59359,-54.27349
2018-06-14 18:40:00+00:00,36.0,35.0,2.7,3.12,,47.59359,-54.27349
2018-06-14 18:50:00+00:00,34.0,36.0,3.08,3.64,,47.59359,-54.27349
2018-06-14 19:00:00+00:00,36.0,37.0,2.96,3.44,,47.59359,-54.27349
2018-06-14 19:10:00+00:00,34.0,35.0,3.19,3.69,,47.59359,-54.27349
2018-06-14 19:20:00+00:00,38.0,37.0,2.47,2.77,,47.59359,-54.27349
2018-06-14 19:30:00+00:00,49.0,51.0,3.28,3.74,,47.59359,-54.27349
2018-06-14 19:40:00+00:00,64.0,65.0,3.61,4.09,,47.59359,-54.27349
2018-06-14 19:50:00+00:00,66.0,70.0,3.91,4.57,,47.59359,-54.27349
2018-06-14 20:00:00+00:00,81.0,78.0,3.35,3.99,,47.59359,-54.27349
2018-06-14 20:10:00+00:00,225.0,228.0,5.79,7.03,,47.59359,-54.27349
2018-06-14 20:20:00+00:00,234.0,236.0,6.99,7.87,,47.59359,-54.27349
2018-06-14 20:30:00+00:00,236.0,234.0,5.89,6.62,,47.59359,-54.27349
2018-06-14 20:40:00+00:00,239.0,235.0,4.94,5.74,,47.59359,-54.27349
2018-06-14 20:50:00+00:00,230.0,231.0,5.61,6.4,,47.59359,-54.27349
2018-06-14 21:00:00+00:00,247.0,248.0,3.85,4.28,,47.59359,-54.27349
2018-06-14 21:10:00+00:00,263.0,253.0,2.46,2.84,,47.59359,-54.27349
2018-06-14 21:20:00+00:00,270.0,273.0,2.49,2.62,,47.59359,-54.27349
2018-06-14 21:30:00+00:00,281.0,280.0,2.72,2.89,,47.59359,-54.27349
2018-06-14 21:40:00+00:00,295.0,296.0,1.86,2.07,,47.59359,-54.27349
2018-06-14 21:50:00+00:00,290.0,291.0,1.88,1.97,,47.59359,-54.27349
2018-06-14 22:00:00+00:00,268.0,270.0,0.94,1.05,,47.59359,-54.27349
2018-06-14 22:10:00+00:00,270.0,269.0,0.56,0.82,,47.59359,-54.27349
2018-06-14 22:20:00+00:00,288.0,338.0,0.09,0.23,,47.59359,-54.27349
2018-06-14 22:30:00+00:00,130.0,132.0,0.94,1.21,,47.59359,-54.27349
2018-06-14 22:40:00+00:00,98.0,103.0,1.15,1.39,,47.59359,-54.27349
2018-06-14 22:50:00+00:00,154.0,154.0,1.02,1.29,,47.59359,-54.27349
2018-06-14 23:00:00+00:00,189.0,193.0,1.69,1.99,,47.59359,-54.27349
2018-06-14 23:10:00+00:00,175.0,177.0,1.8,1.98,,47.59359,-54.27349
2018-06-14 23:20:00+00:00,185.0,187.0,2.8,2.97,,47.59359,-54.27349
2018-06-14 23:30:00+00:00,155.0,151.0,1.84,2.19,,47.59359,-54.27349
2018-06-14 23:40:00+00:00,140.0,138.0,4.18,5.01,,47.59359,-54.27349
2018-06-14 23:50:00+00:00,136.0,140.0,4.38,4.9,,47.59359,-54.27349
